User: anonymous   Login
Location: Colle San Luigi
(43.5500°N, 13.4167°E)
Time: 17:38:36
(UTC+00:00)
Language:

Cosmos 1703 - Orbit

View from above orbital plane
View from above orbital plane
View from above satellite
View from above satellite

Ground track
Ground track

The orbit data is extracted from the following two-line orbital elements,

1 16262U 85108A   20195.51937445 -.00000022 +00000-0 -31309-5 0  9991
2 16262 082.4761 226.7418 0012249 024.4535 335.7274 15.11299487888101
Epoch (UTC): 13 July 2020 12:27:53
Eccentricity: 0.0012249
inclination: 82.4761°
perigee height: 524 km
apogee height: 541 km
right ascension of ascending node: 226.7418°
argument of perigee: 24.4535°
revolutions per day: 15.11299487
mean anomaly at epoch: 335.7274°
orbit number at epoch: 88810

The dashed part of the orbit path shows where the satellite is in the earth's shadow,  

DLR